Location: Prescott
(34.5400°N, 112.4680°W)
Time: 01:09:47
(UTC-07:00)

Amateur Radio Satellites - All Passes

Search period start: 30 August 2014 00:39
Search period end: 31 August 2014 00:39
Location: Prescott, 34.5400°N, 112.4680°W

Satellite Date Start Highest point End Downlink Frequencies (MHz)
Time Altitude Azimuth
AO-40 30 Aug 00:42:23 02:14:06 24° 230° (SW) 05:15:27 Beacon 2401.320
PCSat 30 Aug 01:07:43 01:11:17 17° 51° (NE) 01:14:49 145.825 MHz
Oscar 19 30 Aug 01:17:40 01:22:00 27° 96° (E) 01:26:19 437.125 CW, 437.150 USB
KITSAT 1 30 Aug 01:21:08 01:27:00 21° 315° (NW) 01:32:54 435.175 FM
JAS-1B 30 Aug 01:31:47 01:34:57 14° 88° (E) 01:37:56 435.800 - 435.900 CW/SSB
ITAMSAT 1 30 Aug 01:48:20 01:52:18 22° 95° (E) 01:56:15 435.822 SSB
Oscar 16 30 Aug 01:51:45 01:56:55 63° 101° (ESE) 02:02:03 437.025 USB, Beacon 2401.1428
AO-Echo 30 Aug 01:51:59 01:55:51 25° 96° (E) 01:59:43 ?
Uribyol 2 30 Aug 01:58:05 02:02:36 30° 97° (E) 02:07:06 436.500 FM
AO-27 30 Aug 02:16:22 02:21:19 44° 99° (E) 02:26:14 436.795 MHz FM
Sapphire 30 Aug 02:20:08 02:25:32 66° 62° (ENE) 02:30:55 437.095 MHz 1200 baud AX-25 AFSK
SO-50 30 Aug 02:20:42 02:23:09 15° 108° (ESE) 02:25:36 436.795 FM
Gurwin Techsat 1B 30 Aug 02:39:56 02:44:40 32° 97° (E) 02:49:21 435.225 FM
PCSat 30 Aug 02:49:46 02:55:07 61° 248° (WSW) 03:00:25 145.825 MHz
Oscar 19 30 Aug 02:56:46 03:01:17 31° 290° (WNW) 03:05:46 437.125 CW, 437.150 USB
OPAL 30 Aug 03:03:41 03:07:09 19° 64° (ENE) 03:10:39 ?
JAS-1B 30 Aug 03:19:50 03:26:24 63° 288° (WNW) 03:32:09 435.800 - 435.900 CW/SSB
ITAMSAT 1 30 Aug 03:27:06 03:31:50 37° 289° (WNW) 03:36:33 435.822 SSB
AO-Echo 30 Aug 03:30:39 03:34:32 27° 290° (WNW) 03:38:27 ?
TMSAT-1 30 Aug 03:31:34 03:36:53 77° 102° (ESE) 03:42:10 436.925 FM
Oscar 16 30 Aug 03:33:06 03:35:41 14° 296° (WNW) 03:38:16 437.025 USB, Beacon 2401.1428
Uribyol 2 30 Aug 03:37:35 03:41:56 28° 291° (WNW) 03:46:17 436.500 FM
AO-7 30 Aug 03:45:10 03:51:45 26° 96° (E) 03:58:16 29.400 - 29.500 MHz
AO-27 30 Aug 03:56:51 04:00:27 19° 294° (WNW) 04:04:04 436.795 MHz FM
SO-50 30 Aug 03:58:58 04:03:14 46° 303° (WNW) 04:07:38 436.795 FM
Sapphire 30 Aug 04:05:51 04:08:19 13° 257° (WSW) 04:10:47 437.095 MHz 1200 baud AX-25 AFSK
Uosat F 30 Aug 04:19:50 04:24:29 38° 99° (E) 04:29:08 435.120 FM
Gurwin Techsat 1B 30 Aug 04:20:05 04:24:27 27° 292° (WNW) 04:28:49 435.225 FM
UOSAT-12 30 Aug 04:23:23 04:26:51 22° 110° (ESE) 04:30:23 437.025 FM, 437.400 FM
OPAL 30 Aug 04:40:51 04:45:38 44° 259° (WSW) 04:50:32 ?
TMSAT-1 30 Aug 05:14:19 05:16:05 12° 297° (WNW) 05:17:51 436.925 FM
AO-7 30 Aug 05:36:46 05:44:52 60° 292° (WNW) 05:52:56 29.400 - 29.500 MHz
Hamsat 30 Aug 05:54:18 05:58:18 35° 97° (E) 06:02:14 145.90 MHz
Uosat F 30 Aug 05:59:21 06:02:58 21° 293° (WNW) 06:06:35 435.120 FM
UOSAT-12 30 Aug 06:02:33 06:06:45 34° 305° (NW) 06:11:03 437.025 FM, 437.400 FM
RS-15 30 Aug 06:07:45 06:16:44 29° 104° (ESE) 06:25:29 29.354 - 29.394 USB, Beacon 29.352 USB
JAS-2 30 Aug 06:16:49 06:22:02 57° 101° (ESE) 06:27:41 435.800 - 435.900 CW/SSB, 435.910 FM
STRAND 1 30 Aug 06:23:19 06:28:22 69° 75° (ENE) 06:33:26 ?
Saudisat 1A 30 Aug 06:51:21 06:54:49 22° 52° (NE) 06:58:15 436.775 MHz
SO-67 30 Aug 07:13:01 07:16:15 36° 98° (E) 07:19:27 435.3500 MHz FM
KITSAT 1 30 Aug 07:20:40 07:26:57 24° 47° (NE) 07:33:10 435.175 FM
Hamsat 30 Aug 07:31:10 07:33:56 17° 292° (WNW) 07:36:41 145.90 MHz
AO-7 30 Aug 07:34:30 07:35:56 11° 311° (NW) 07:37:22 29.400 - 29.500 MHz
HO-68 30 Aug 08:00:53 08:03:40 12° 91° (E) 08:06:27 435.675 MHz FM
JAS-2 30 Aug 08:03:49 08:06:45 15° 294° (WNW) 08:09:47 435.800 - 435.900 CW/SSB, 435.910 FM
STRAND 1 30 Aug 08:06:42 08:07:58 11° 268° (W) 08:09:13 ?
RS-15 30 Aug 08:17:08 08:28:10 66° 302° (WNW) 08:39:03 29.354 - 29.394 USB, Beacon 29.352 USB
Saudisat 1A 30 Aug 08:30:28 08:34:25 32° 247° (WSW) 08:38:20 436.775 MHz
ISS 30 Aug 09:07:20 09:09:45 19° 129° (SE) 09:12:11 145.800 FM
UKube-1 30 Aug 09:14:31 09:18:04 24° 97° (E) 09:21:36 145.840 MHz, 145.915 MHz
KITSAT 1 30 Aug 09:15:02 09:23:05 75° 246° (WSW) 09:31:06 435.175 FM
Oscar 11 30 Aug 09:21:31 09:24:37 19° 95° (E) 09:27:42 145.825 FM, Beacon 2401.500 USB
HO-68 30 Aug 09:44:55 09:52:06 90° 106° (ESE) 09:59:17 435.675 MHz FM
FUNcube-1 30 Aug 09:46:24 09:48:51 14° 93° (E) 09:51:19 145.950 - 145.970 MHz USB
RS-15 30 Aug 10:35:57 10:43:06 19° 329° (NNW) 10:50:16 29.354 - 29.394 USB, Beacon 29.352 USB
ISS 30 Aug 10:43:16 10:46:19 33° 323° (NW) 10:49:22 145.800 FM
UKube-1 30 Aug 10:50:41 10:54:08 24° 291° (WNW) 10:57:36 145.840 MHz, 145.915 MHz
Oscar 11 30 Aug 10:56:58 11:00:48 31° 288° (WNW) 11:04:37 145.825 FM, Beacon 2401.500 USB
KITSAT 1 30 Aug 11:15:40 11:17:07 11° 261° (W) 11:18:34 435.175 FM
PANSAT 30 Aug 11:17:40 11:20:26 19° 164° (SSE) 11:23:11 not established
FUNcube-1 30 Aug 11:21:04 11:25:24 45° 286° (WNW) 11:29:46 145.950 - 145.970 MHz USB
HO-68 30 Aug 11:35:05 11:38:49 15° 302° (WNW) 11:42:33 435.675 MHz FM
JAS-1B 30 Aug 12:11:03 12:16:38 18° 59° (ENE) 12:21:55 435.800 - 435.900 CW/SSB
MaSat-1 30 Aug 12:23:23 12:27:45 38° 106° (ESE) 12:32:27 437.345 MHz
Oscar 19 30 Aug 12:31:17 12:35:35 27° 69° (ENE) 12:39:54 437.125 CW, 437.150 USB
SO-50 30 Aug 12:33:31 12:38:17 59° 59° (ENE) 12:43:03 436.795 FM
Oscar 10/S400 30 Aug 12:49:31 03:37:42 48° 231° (SW) 13:10:58 145.825 - 145.975 CW/USB, Beacon 145.810 USB
PANSAT 30 Aug 12:56:42 13:00:10 32° 176° (S) 13:03:38 not established
RS-15 30 Aug 12:59:43 13:02:17 11° 7° (N) 13:04:52 29.354 - 29.394 USB, Beacon 29.352 USB
AO-Echo 30 Aug 13:01:39 13:05:43 25° 69° (ENE) 13:09:41 ?
ITAMSAT 1 30 Aug 13:03:10 13:07:15 24° 68° (ENE) 13:11:20 435.822 SSB
Oscar 16 30 Aug 13:05:11 13:10:15 63° 74° (ENE) 13:15:22 437.025 USB, Beacon 2401.1428
Uribyol 2 30 Aug 13:12:42 13:17:13 32° 70° (ENE) 13:21:44 436.500 FM
AO-27 30 Aug 13:31:06 13:36:02 47° 72° (ENE) 13:40:59 436.795 MHz FM
JAS-1B 30 Aug 13:56:04 14:05:57 80° 74° (ENE) 14:15:00 435.800 - 435.900 CW/SSB
Gurwin Techsat 1B 30 Aug 13:57:38 14:02:26 36° 71° (ENE) 14:07:14 435.225 FM
MaSat-1 30 Aug 14:01:01 14:04:54 23° 303° (WNW) 14:08:58 437.345 MHz
Oscar 19 30 Aug 14:10:19 14:14:47 30° 263° (W) 14:19:18 437.125 CW, 437.150 USB
SO-50 30 Aug 14:16:03 14:18:20 13° 252° (WSW) 14:20:38 436.795 FM
UOSAT-12 30 Aug 14:35:00 14:39:44 77° 60° (ENE) 14:44:22 437.025 FM, 437.400 FM
PANSAT 30 Aug 14:36:38 14:39:58 28° 189° (S) 14:43:19 not established
AO-Echo 30 Aug 14:39:50 14:44:19 31° 262° (W) 14:48:41 ?
AO-7 30 Aug 14:40:47 14:47:27 28° 60° (ENE) 14:54:05 29.400 - 29.500 MHz
ITAMSAT 1 30 Aug 14:41:51 14:46:31 34° 262° (W) 14:51:12 435.822 SSB
Oscar 16 30 Aug 14:47:56 14:49:58 12° 268° (W) 14:52:01 437.025 USB, Beacon 2401.1428
TMSAT-1 30 Aug 14:48:47 14:54:03 84° 76° (ENE) 14:59:22 436.925 FM
Uribyol 2 30 Aug 14:52:26 14:56:39 25° 264° (W) 15:00:52 436.500 FM
RS-15 30 Aug 15:11:01 15:20:16 29° 42° (NE) 15:29:43 29.354 - 29.394 USB, Beacon 29.352 USB
AO-27 30 Aug 15:12:25 15:15:44 17° 266° (W) 15:19:04 436.795 MHz FM
Sapphire 30 Aug 15:18:16 15:20:49 14° 103° (ESE) 15:23:22 437.095 MHz 1200 baud AX-25 AFSK
Uosat F 30 Aug 15:29:45 15:34:20 37° 71° (ENE) 15:38:55 435.120 FM
Gurwin Techsat 1B 30 Aug 15:38:16 15:42:25 23° 265° (W) 15:46:36 435.225 FM
PCSat 30 Aug 15:45:27 15:50:01 29° 108° (ESE) 15:54:36 145.825 MHz
JAS-1B 30 Aug 15:49:41 15:56:49 23° 267° (W) 16:03:39 435.800 - 435.900 CW/SSB
PANSAT 30 Aug 16:17:42 16:19:38 13° 201° (SSW) 16:21:34 not established
JAS-2 30 Aug 16:27:46 16:31:26 17° 66° (ENE) 16:34:54 435.800 - 435.900 CW/SSB, 435.910 FM
AO-7 30 Aug 16:31:26 16:39:38 61° 256° (WSW) 16:47:52 29.400 - 29.500 MHz
Hamsat 30 Aug 16:45:13 16:48:02 17° 68° (ENE) 16:50:51 145.90 MHz
OPAL 30 Aug 16:53:55 16:59:07 66° 104° (ESE) 17:04:16 ?
Sapphire 30 Aug 16:58:16 17:03:36 65° 298° (WNW) 17:09:00 437.095 MHz 1200 baud AX-25 AFSK
Uosat F 30 Aug 17:09:30 17:13:11 20° 265° (W) 17:16:52 435.120 FM
ISS 30 Aug 17:14:35 17:17:51 54° 40° (NE) 17:21:07 145.800 FM
RS-15 30 Aug 17:22:39 17:33:48 81° 244° (WSW) 17:45:27 29.354 - 29.394 USB, Beacon 29.352 USB
PCSat 30 Aug 17:28:26 17:33:16 33° 303° (WNW) 17:38:09 145.825 MHz
JAS-2 30 Aug 18:09:50 18:16:09 61° 258° (WSW) 18:21:46 435.800 - 435.900 CW/SSB, 435.910 FM
Hamsat 30 Aug 18:19:46 18:23:41 34° 263° (W) 18:27:38 145.90 MHz
OPAL 30 Aug 18:34:46 18:37:23 14° 298° (WNW) 18:40:00 ?
STRAND 1 30 Aug 18:37:55 18:42:24 31° 97° (E) 18:46:52 ?
ISS 30 Aug 18:53:09 18:54:12 11° 234° (SW) 18:55:16 145.800 FM
SO-67 30 Aug 19:15:11 19:18:32 48° 261° (W) 19:21:54 435.3500 MHz FM
RS-15 30 Aug 19:38:53 19:44:29 15° 261° (W) 19:50:12 29.354 - 29.394 USB, Beacon 29.352 USB
UKube-1 30 Aug 20:07:56 20:10:20 15° 67° (ENE) 20:12:44 145.840 MHz, 145.915 MHz
HO-68 30 Aug 20:09:30 20:16:15 48° 68° (ENE) 20:23:01 435.675 MHz FM
Oscar 11 30 Aug 20:16:10 20:16:30 10° 65° (ENE) 20:16:51 145.825 FM, Beacon 2401.500 USB
STRAND 1 30 Aug 20:17:15 20:21:26 26° 291° (WNW) 20:25:36 ?
Saudisat 1A 30 Aug 20:56:43 20:58:20 12° 108° (ESE) 20:59:58 436.775 MHz
UKube-1 30 Aug 21:42:03 21:46:09 41° 261° (W) 21:50:16 145.840 MHz, 145.915 MHz
KITSAT 1 30 Aug 21:46:11 21:52:06 23° 104° (ESE) 21:58:01 435.175 FM
Oscar 11 30 Aug 21:47:51 21:52:07 61° 259° (W) 21:56:26 145.825 FM, Beacon 2401.500 USB
HO-68 30 Aug 21:58:10 22:04:04 28° 264° (W) 22:10:01 435.675 MHz FM
FUNcube-1 30 Aug 22:13:54 22:18:03 86° 257° (WSW) 22:22:18 145.950 - 145.970 MHz USB
MaSat-1 30 Aug 22:21:27 22:25:34 36° 61° (ENE) 22:29:09 437.345 MHz
Saudisat 1A 30 Aug 22:33:06 22:37:24 55° 302° (WNW) 22:41:45 436.775 MHz
KITSAT 1 30 Aug 23:38:45 23:46:46 67° 300° (WNW) 23:54:50 435.175 FM
MaSat-1 30 Aug 23:59:49 00:02:01 14° 261° (W) 00:04:05 437.345 MHz
